Location: Burera
(21.3780°N, 81.9534°E)
Time: 00:17:03
(UTC+00:00)

HJ-1C - Pass Details

Date: 13 August 2020
Orbit: 431 x 445 km, 97.1° (Epoch: 22 September)

Event Time Altitude Azimuth Distance (km) Brightness Sun altitude
Rises 13:34:55 0° 159° (SSE) 2,428 6.7 -7.7°
Reaches altitude 10° 13:36:58 10° 154° (SSE) 1,560 5.7 -8.2°
Maximum altitude 13:40:13 50° 78° (ENE) 575 3.6 -8.9°
Drops below altitude 10° 13:43:28 10° 2° (N) 1,561 6.4 -9.6°
Sets 13:45:31 0° 357° (N) 2,431 7.4 -10.1°
